TimeCDT,TemperatureF,Dew PointF,Humidity,Sea Level PressureIn,VisibilityMPH,Wind Direction,Wind SpeedMPH,Gust SpeedMPH,PrecipitationIn,Events,Conditions,WindDirDegrees,DateUTC
12:14 AM,33.8,28.4,81,30.25,10.0,NNW,10.4,-,N/A,,Clear,340,2012-10-06 05:14:00
12:34 AM,33.8,28.4,81,30.25,10.0,NNW,10.4,-,N/A,,Scattered Clouds,340,2012-10-06 05:34:00
12:55 AM,33.8,28.4,81,30.26,10.0,NNW,9.2,-,N/A,,Scattered Clouds,340,2012-10-06 05:55:00
1:14 AM,32.0,26.6,80,30.26,10.0,NW,9.2,-,N/A,,Clear,320,2012-10-06 06:14:00
1:34 AM,32.0,26.6,80,30.26,10.0,NW,8.1,-,N/A,,Scattered Clouds,310,2012-10-06 06:34:00
1:55 AM,30.2,26.6,86,30.26,10.0,NW,9.2,-,N/A,,Clear,320,2012-10-06 06:55:00
2:14 AM,30.2,26.6,86,30.26,10.0,NW,6.9,-,N/A,,Scattered Clouds,320,2012-10-06 07:14:00
2:34 AM,30.2,24.8,80,30.27,10.0,WNW,5.8,-,N/A,,Scattered Clouds,300,2012-10-06 07:34:00
2:55 AM,30.2,24.8,80,30.27,10.0,WNW,5.8,-,N/A,,Clear,300,2012-10-06 07:55:00
3:14 AM,28.4,24.8,86,30.27,10.0,WNW,5.8,-,N/A,,Clear,300,2012-10-06 08:14:00
3:34 AM,28.4,24.8,86,30.27,10.0,WNW,5.8,-,N/A,,Clear,300,2012-10-06 08:34:00
3:55 AM,28.4,24.8,86,30.27,10.0,WNW,6.9,-,N/A,,Scattered Clouds,300,2012-10-06 08:55:00
4:34 AM,28.4,23.0,80,30.27,10.0,WNW,8.1,-,N/A,,Clear,300,2012-10-06 09:34:00
4:55 AM,28.4,23.0,80,30.27,10.0,WNW,6.9,-,N/A,,Clear,300,2012-10-06 09:55:00
5:14 AM,26.6,23.0,86,30.27,10.0,WNW,6.9,-,N/A,,Clear,300,2012-10-06 10:14:00
5:34 AM,26.6,21.2,80,30.27,10.0,WNW,6.9,-,N/A,,Clear,290,2012-10-06 10:34:00
5:55 AM,26.6,21.2,80,30.28,10.0,WNW,5.8,-,N/A,,Clear,290,2012-10-06 10:55:00
6:14 AM,26.6,21.2,80,30.28,10.0,West,5.8,-,N/A,,Clear,280,2012-10-06 11:14:00
6:34 AM,24.8,21.2,86,30.28,10.0,WNW,5.8,-,N/A,,Clear,290,2012-10-06 11:34:00
6:54 AM,24.8,21.2,86,30.29,10.0,WNW,5.8,-,N/A,,Clear,290,2012-10-06 11:54:00
7:14 AM,24.8,21.2,86,30.29,10.0,WNW,8.1,-,N/A,,Clear,290,2012-10-06 12:14:00
7:35 AM,24.8,21.2,86,30.29,1.0,WNW,5.8,-,N/A,,Overcast,290,2012-10-06 12:35:00
7:54 AM,24.8,19.4,80,30.29,0.2,West,5.8,-,N/A,,Haze,280,2012-10-06 12:54:00
8:14 AM,24.8,21.2,86,30.30,0.2,WNW,5.8,-,N/A,Fog,Light Freezing Fog,290,2012-10-06 13:14:00
8:35 AM,24.8,21.2,86,30.29,0.2,WNW,5.8,-,N/A,Fog,Light Freezing Fog,290,2012-10-06 13:35:00
8:54 AM,26.6,21.2,80,30.29,0.2,WNW,6.9,-,N/A,,Haze,290,2012-10-06 13:54:00
9:14 AM,26.6,21.2,80,30.30,0.5,WNW,5.8,-,N/A,Fog,Light Freezing Fog,290,2012-10-06 14:14:00
9:35 AM,26.6,23.0,86,30.30,0.5,WNW,5.8,-,N/A,Fog,Light Freezing Fog,290,2012-10-06 14:35:00
9:54 AM,28.4,23.0,80,30.30,4.0,West,5.8,-,N/A,,Haze,280,2012-10-06 14:54:00
10:14 AM,28.4,24.8,86,30.30,10.0,West,6.9,-,N/A,,Clear,280,2012-10-06 15:14:00
10:35 AM,28.4,24.8,86,30.30,10.0,West,8.1,-,N/A,,Clear,280,2012-10-06 15:35:00
10:54 AM,30.2,24.8,80,30.31,10.0,West,8.1,-,N/A,,Clear,270,2012-10-06 15:54:00
11:14 AM,30.2,26.6,86,30.31,10.0,West,9.2,-,N/A,,Clear,280,2012-10-06 16:14:00
11:35 AM,30.2,24.8,80,30.31,1.0,West,10.4,-,N/A,,Haze,270,2012-10-06 16:35:00
11:54 AM,30.2,26.6,86,30.31,1.5,West,8.1,-,N/A,,Haze,280,2012-10-06 16:54:00
12:14 PM,32.0,26.6,80,30.31,7.0,West,6.9,-,N/A,,Scattered Clouds,280,2012-10-06 17:14:00
12:35 PM,33.8,28.4,81,30.30,10.0,West,6.9,-,N/A,,Clear,280,2012-10-06 17:35:00
12:54 PM,35.6,30.2,81,30.29,10.0,WNW,5.8,-,N/A,,Clear,290,2012-10-06 17:54:00
1:14 PM,37.4,30.2,75,30.28,10.0,West,8.1,-,N/A,,Clear,270,2012-10-06 18:14:00
1:35 PM,37.4,32.0,81,30.28,10.0,West,9.2,-,N/A,,Clear,270,2012-10-06 18:35:00
1:54 PM,37.4,30.2,75,30.27,10.0,West,8.1,-,N/A,,Clear,260,2012-10-06 18:54:00
2:14 PM,39.2,32.0,75,30.26,10.0,West,9.2,-,N/A,,Clear,280,2012-10-06 19:14:00
2:34 PM,39.2,32.0,75,30.25,10.0,West,9.2,-,N/A,,Clear,260,2012-10-06 19:34:00
2:54 PM,39.2,32.0,75,30.24,10.0,West,8.1,-,N/A,,Clear,270,2012-10-06 19:54:00
3:14 PM,39.2,30.2,70,30.24,10.0,West,10.4,-,N/A,,Clear,260,2012-10-06 20:14:00
3:21 PM,39.2,30.2,70,30.24,10.0,West,10.4,-,N/A,,Clear,260,2012-10-06 20:21:00
3:41 PM,39.2,30.2,70,30.23,10.0,WSW,9.2,-,N/A,,Clear,240,2012-10-06 20:41:00
4:01 PM,39.2,30.2,70,30.22,10.0,WSW,10.4,-,N/A,,Clear,250,2012-10-06 21:01:00
4:21 PM,39.2,30.2,70,30.22,10.0,SW,10.4,-,N/A,,Clear,230,2012-10-06 21:21:00
5:01 PM,39.2,30.2,70,30.20,10.0,SW,9.2,-,N/A,,Clear,230,2012-10-06 22:01:00
5:21 PM,39.2,30.2,70,30.19,10.0,SW,6.9,-,N/A,,Clear,220,2012-10-06 22:21:00
5:41 PM,37.4,30.2,75,30.19,10.0,SSW,6.9,-,N/A,,Clear,210,2012-10-06 22:41:00
6:01 PM,37.4,30.2,75,30.18,10.0,SSW,6.9,-,N/A,,Clear,200,2012-10-06 23:01:00
6:21 PM,37.4,30.2,75,30.17,10.0,SSW,6.9,-,N/A,,Clear,200,2012-10-06 23:21:00
6:41 PM,37.4,30.2,75,30.16,10.0,SSW,6.9,-,N/A,,Clear,200,2012-10-06 23:41:00
7:01 PM,35.6,28.4,75,30.16,10.0,SSW,5.8,-,N/A,,Clear,200,2012-10-07 00:01:00
7:21 PM,35.6,28.4,75,30.15,10.0,South,5.8,-,N/A,,Clear,190,2012-10-07 00:21:00
7:41 PM,35.6,28.4,75,30.14,10.0,South,6.9,-,N/A,,Clear,190,2012-10-07 00:41:00
8:01 PM,33.8,28.4,81,30.14,10.0,South,5.8,-,N/A,,Clear,190,2012-10-07 01:01:00
8:21 PM,33.8,28.4,81,30.14,10.0,South,6.9,-,N/A,,Clear,180,2012-10-07 01:21:00
9:01 PM,35.6,28.4,75,30.12,10.0,SSW,8.1,-,N/A,,Clear,200,2012-10-07 02:01:00
9:21 PM,35.6,28.4,75,30.11,10.0,SSW,9.2,-,N/A,,Clear,210,2012-10-07 02:21:00
9:41 PM,35.6,28.4,75,30.11,10.0,SSW,8.1,-,N/A,,Clear,210,2012-10-07 02:41:00
10:01 PM,35.6,28.4,75,30.10,10.0,SSW,9.2,-,N/A,,Clear,210,2012-10-07 03:01:00
10:21 PM,35.6,28.4,75,30.09,10.0,SSW,9.2,-,N/A,,Clear,210,2012-10-07 03:21:00
10:41 PM,33.8,28.4,81,30.08,10.0,SSW,9.2,-,N/A,,Clear,210,2012-10-07 03:41:00